KB1WCR Weather Reports


time (UTC)temp
C
wind
direction
speed
KPH
gust
KPH
rain 1hr
cm
rain 24hr
cm
rain mn
cm
humidity
%
barometer
mb
20260901201133 21 66 4.8 9.7 0.00 0.00 0.00 87 1018.1
20260901200627 21 10 8.0 9.7 0.00 0.00 0.00 86 1018.1
20260901200123 21 224 0.0 1.6 0.00 0.00 0.00 87 1018.3
20260901195620 21 314 3.2 3.2 0.00 0.00 0.00 86 1018.1
20260901195115 21 49 6.4 11.3 0.00 0.00 0.00 88 1018.2
20260901194610 20 345 0.0 1.6 0.00 0.00 0.00 86 1018.2
20260901194105 20 282 0.0 1.6 0.00 0.00 0.00 87 1018.1
20260901193601 20 0 4.8 6.4 0.00 0.00 0.00 86 1018.3
20260901193055 20 337 1.6 1.6 0.00 0.00 0.00 86 1018.1
20260901192550 21 198 3.2 3.2 0.00 0.00 0.00 84 1018.3
20260901192045 21 50 1.6 1.6 0.00 0.00 0.00 82 1018.3
20260901191542 21 189 4.8 4.8 0.00 0.00 0.00 81 1018.3
20260901191037 21 54 1.6 1.6 0.00 0.00 0.00 80 1018.4
20260901190532 21 286 1.6 3.2 0.00 0.00 0.00 79 1018.3
20260901190031 22 289 1.6 1.6 0.00 0.00 0.00 77 1018.5
20260901185525 22 324 3.2 4.8 0.00 0.00 0.00 76 1018.3
20260901185024 22 188 1.6 3.2 0.00 0.00 0.00 75 1018.2
20260901184519 22 18 3.2 4.8 0.00 0.00 0.00 73 1018.2
20260901184015 23 258 3.2 4.8 0.00 0.00 0.00 71 1018.3
20260901183509 23 148 4.8 6.4 0.00 0.00 0.00 67 1018.3
20260901183005 24 51 3.2 6.4 0.00 0.00 0.00 67 1018.1
20260901182501 23 248 3.2 6.4 0.00 0.00 0.00 67 1018.0
20260901182000 24 304 0.0 0.0 0.00 0.00 0.00 67 1018.1
20260901181455 23 324 0.0 0.0 0.00 0.00 0.00 67 1018.0
20260901180954 22 352 1.6 1.6 0.00 0.00 0.00 63 1018.0
20260901180453 23 337 3.2 4.8 0.00 0.00 0.00 66 1018.0
20260901175951 23 308 0.0 0.0 0.00 0.00 0.00 64 1018.1
20260901175446 23 343 4.8 4.8 0.00 0.00 0.00 61 1017.8
20260901174942 23 245 1.6 1.6 0.00 0.00 0.00 62 1018.0
20260901174437 23 227 1.6 1.6 0.00 0.00 0.00 63 1018.1
20260901173933 22 330 1.6 1.6 0.00 0.00 0.00 67 1017.8
20260901173428 22 350 0.0 1.6 0.00 0.00 0.00 65 1018.3
20260901172924 22 101 0.0 1.6 0.00 0.00 0.00 66 1018.0
20260901172419 23 56 1.6 3.2 0.00 0.00 0.00 64 1018.1
20260901171917 23 172 0.0 1.6 0.00 0.00 0.00 64 1017.9
20260901171416 23 34 3.2 3.2 0.00 0.00 0.00 66 1018.0
20260901170914 23 349 3.2 3.2 0.00 0.00 0.00 62 1017.9
20260901170404 23 11 0.0 1.6 0.00 0.00 0.00 65 1018.1
20260901165903 22 324 0.0 0.0 0.00 0.00 0.00 65 1018.1
20260901165358 23 142 1.6 3.2 0.00 0.00 0.00 66 1018.2
20260901164855 22 268 1.6 1.6 0.00 0.00 0.00 66 1018.1
20260901164350 22 48 1.6 3.2 0.00 0.00 0.00 68 1018.3
20260901163849 22 16 3.2 3.2 0.00 0.00 0.00 68 1018.3
20260901163344 21 62 3.2 6.4 0.00 0.00 0.00 69 1018.2
20260901162839 21 40 3.2 4.8 0.00 0.00 0.00 70 1018.4
20260901162338 21 277 1.6 1.6 0.00 0.00 0.00 70 1018.2
20260901161832 21 348 0.0 0.0 0.00 0.00 0.00 72 1018.3
20260901161327 21 40 0.0 1.6 0.00 0.00 0.00 71 1018.3
20260901160822 21 46 3.2 3.2 0.00 0.00 0.00 70 1018.3
20260901160319 21 353 3.2 3.2 0.00 0.00 0.00 69 1018.4
20260901155817 21 25 3.2 4.8 0.00 0.00 0.00 68 1018.3
20260901155312 21 70 3.2 3.2 0.00 0.00 0.00 69 1018.4
20260901154809 21 351 1.6 1.6 0.00 0.00 0.00 70 1018.5
20260901154308 21 226 1.6 1.6 0.00 0.00 0.00 70 1018.5
20260901153803 21 90 1.6 1.6 0.00 0.00 0.00 70 1018.4
20260901153303 21 17 3.2 4.8 0.00 0.00 0.00 68 1018.5
20260901152801 21 324 1.6 1.6 0.00 0.00 0.00 71 1018.4
20260901152301 21 161 1.6 1.6 0.00 0.00 0.00 71 1018.5
20260901151756 20 302 0.0 0.0 0.00 0.00 0.00 73 1018.4
20260901151255 20 335 0.0 0.0 0.00 0.00 0.00 73 1018.2
20260901150750 20 311 0.0 1.6 0.00 0.00 0.00 75 1018.2
20260901150248 20 329 0.0 1.6 0.00 0.00 0.00 74 1018.0
20260901145746 20 156 1.6 1.6 0.00 0.00 0.00 74 1017.9
20260901145240 20 340 3.2 4.8 0.00 0.00 0.00 73 1018.0
20260901144735 20 0 1.6 3.2 0.00 0.00 0.00 75 1018.0
20260901144231 20 1 3.2 3.2 0.00 0.00 0.00 73 1018.1
20260901143727 18 298 1.6 1.6 0.00 0.00 0.00 80 1018.1
20260901143222 18 348 3.2 3.2 0.00 0.00 0.00 77 1018.1
20260901142718 18 54 3.2 4.8 0.00 0.00 0.00 78 1018.2
20260901142217 18 42 3.2 4.8 0.00 0.00 0.00 76 1018.5
20260901141712 18 26 1.6 3.2 0.00 0.00 0.00 79 1018.4
20260901141207 18 77 3.2 6.4 0.00 0.00 0.00 79 1018.5
20260901140706 17 318 0.0 0.0 0.00 0.00 0.00 82 1018.8
20260901140204 17 27 0.0 0.0 0.00 0.00 0.00 83 1018.9
20260901135659 17 310 0.0 0.0 0.00 0.00 0.00 83 1018.7
20260901135154 16 94 1.6 1.6 0.00 0.00 0.00 82 1018.8
20260901134650 16 337 0.0 0.0 0.00 0.00 0.00 85 1018.8
20260901134145 16 313 0.0 0.0 0.00 0.00 0.00 86 1018.6
20260901133644 16 315 0.0 0.0 0.00 0.00 0.00 86 1018.7
20260901133143 16 35 0.0 1.6 0.00 0.00 0.00 86 1018.8
20260901132637 16 304 0.0 0.0 0.00 0.00 0.00 87 1018.9
20260901132132 15 311 0.0 0.0 0.00 0.00 0.00 89 1018.8
20260901131631 15 304 0.0 0.0 0.00 0.00 0.00 88 1018.8
20260901131126 15 296 1.6 1.6 0.00 0.00 0.00 89 1018.9
20260901130621 15 317 1.6 1.6 0.00 0.00 0.00 90 1018.8
20260901130119 15 322 0.0 0.0 0.00 0.00 0.00 90 1018.8
20260901125617 15 331 0.0 0.0 0.00 0.00 0.00 91 1018.6
20260901125108 15 321 0.0 0.0 0.00 0.00 0.00 92 1018.8
20260901124607 14 1 1.6 1.6 0.00 0.00 0.00 92 1019.0
20260901124102 14 324 0.0 1.6 0.00 0.00 0.00 92 1018.9
20260901123557 14 8 3.2 3.2 0.00 0.00 0.00 93 1019.1
20260901123056 14 317 0.0 0.0 0.00 0.00 0.00 94 1018.9
20260901122555 13 301 0.0 0.0 0.00 0.00 0.00 99 1018.8
20260901122055 13 292 0.0 0.0 0.00 0.00 0.00 99 1018.6
20260901121550 13 321 0.0 0.0 0.00 0.00 0.00 99 1018.8
20260901121045 13 288 0.0 0.0 0.00 0.00 0.00 99 1018.6
20260901120545 13 296 0.0 0.0 0.00 0.00 0.00 99 1018.7
20260901120041 13 296 0.0 0.0 0.00 0.00 0.00 99 1018.5
20260901115536 12 302 0.0 0.0 0.00 0.00 0.00 99 1018.7
20260901115033 12 302 0.0 0.0 0.00 0.00 0.00 99 1018.6
20260901114528 12 301 0.0 0.0 0.00 0.00 0.00 99 1018.5
20260901114026 12 310 0.0 0.0 0.00 0.00 0.00 99 1018.6
20260901113525 12 312 0.0 0.0 0.00 0.00 0.00 99 1018.5
20260901113016 12 307 0.0 0.0 0.00 0.00 0.00 99 1018.7
20260901112510 12 307 0.0 0.0 0.00 0.00 0.00 99 1018.4
20260901112005 11 310 0.0 0.0 0.00 0.00 0.00 99 1018.4
20260901111504 11 303 0.0 0.0 0.00 0.00 0.00 99 1018.3
20260901111003 11 303 0.0 0.0 0.00 0.00 0.00 99 1018.4
20260901110458 11 301 0.0 0.0 0.00 0.00 0.00 99 1018.3
20260901105954 11 312 0.0 0.0 0.00 0.00 0.00 99 1018.2
20260901105450 11 311 0.0 0.0 0.00 0.00 0.00 99 1018.3
20260901104950 11 311 0.0 0.0 0.00 0.00 0.00 99 1018.2
20260901104446 11 305 0.0 0.0 0.00 0.00 0.00 99 1018.3
20260901103940 11 303 0.0 0.0 0.00 0.00 0.00 99 1018.1
20260901103435 11 303 0.0 0.0 0.00 0.00 0.00 99 1017.9
20260901102930 11 302 0.0 0.0 0.00 0.00 0.00 99 1018.0
20260901102425 11 302 0.0 0.0 0.00 0.00 0.00 99 1017.8
20260901101919 10 312 0.0 0.0 0.00 0.00 0.00 99 1017.7
20260901101415 10 309 0.0 0.0 0.00 0.00 0.00 99 1017.8
20260901100914 10 312 0.0 0.0 0.00 0.00 0.00 99 1017.9
20260901100408 10 320 0.0 0.0 0.00 0.00 0.00 99 1017.8
20260901095902 10 312 0.0 0.0 0.00 0.00 0.00 99 1017.9
20260901095401 10 316 0.0 0.0 0.00 0.00 0.00 99 1017.9
20260901094854 10 308 0.0 0.0 0.00 0.00 0.00 99 1018.0
20260901094349 10 313 0.0 0.0 0.00 0.00 0.00 99 1017.9
20260901093843 10 317 0.0 0.0 0.00 0.00 0.00 99 1017.9
20260901093343 10 313 0.0 0.0 0.00 0.00 0.00 99 1017.9
20260901092839 10 316 0.0 0.0 0.00 0.00 0.00 99 1017.8
20260901092334 10 317 0.0 0.0 0.00 0.00 0.00 99 1017.8
20260901091830 10 317 0.0 0.0 0.00 0.00 0.00 99 1018.0
20260901091324 10 317 0.0 0.0 0.00 0.00 0.00 99 1018.0
20260901090819 10 317 0.0 0.0 0.00 0.00 0.00 99 1018.0
20260901090314 10 317 0.0 0.0 0.00 0.00 0.00 99 1018.0
20260901085810 10 317 0.0 0.0 0.00 0.00 0.00 99 1017.8
20260901085306 10 317 0.0 0.0 0.00 0.00 0.00 99 1017.9
20260901084802 10 317 0.0 0.0 0.00 0.00 0.00 99 1018.1
20260901084258 9 317 0.0 0.0 0.00 0.00 0.00 99 1017.9
20260901083757 10 317 0.0 0.0 0.00 0.00 0.00 99 1017.9
20260901083257 10 317 0.0 0.0 0.00 0.00 0.00 99 1017.9
20260901082755 9 317 0.0 0.0 0.00 0.00 0.00 99 1017.9
20260901082251 10 317 0.0 0.0 0.00 0.00 0.00 99 1017.8
20260901081746 10 317 0.0 0.0 0.00 0.00 0.00 99 1018.1
20260901081246 10 317 0.0 0.0 0.00 0.00 0.00 99 1018.1
20260901080741 10 317 0.0 0.0 0.00 0.00 0.00 99 1017.8
20260901080235 10 317 0.0 0.0 0.00 0.00 0.00 99 1018.0
20260901075734 10 319 0.0 0.0 0.00 0.00 0.00 99 1018.0
20260901075230 10 325 0.0 0.0 0.00 0.00 0.00 99 1018.0
20260901074724 9 326 0.0 0.0 0.00 0.00 0.00 99 1018.0
20260901074220 9 326 0.0 0.0 0.00 0.00 0.00 99 1018.0
20260901073716 10 326 0.0 0.0 0.00 0.00 0.00 99 1018.0
20260901073211 10 321 0.0 0.0 0.00 0.00 0.00 99 1018.0
20260901072706 10 316 0.0 0.0 0.00 0.00 0.00 99 1018.1
20260901072201 10 316 0.0 0.0 0.00 0.00 0.00 99 1018.2
20260901071700 10 316 0.0 0.0 0.00 0.00 0.00 99 1018.2
20260901071155 10 316 0.0 0.0 0.00 0.00 0.00 99 1018.4
20260901070649 9 316 0.0 0.0 0.00 0.00 0.00 99 1018.2
20260901070144 10 316 0.0 0.0 0.00 0.00 0.00 99 1018.2
20260901065643 10 316 0.0 0.0 0.00 0.00 0.00 99 1018.0
20260901065138 10 316 0.0 0.0 0.00 0.00 0.00 99 1018.2
20260901064635 10 316 0.0 0.0 0.00 0.00 0.00 99 1018.1
20260901064132 10 316 0.0 0.0 0.00 0.00 0.00 99 1018.0
20260901063629 10 316 0.0 0.0 0.00 0.00 0.00 99 1018.1
20260901063124 10 316 0.0 0.0 0.00 0.00 0.00 99 1018.1
20260901062619 10 315 0.0 0.0 0.00 0.00 0.00 99 1018.2
20260901062115 10 313 0.0 0.0 0.00 0.00 0.00 99 1018.4
20260901061611 10 314 0.0 0.0 0.00 0.00 0.00 99 1018.3
20260901061105 10 313 0.0 0.0 0.00 0.00 0.00 99 1018.2
20260901060600 10 310 0.0 0.0 0.00 0.00 0.00 99 1018.4
20260901060056 10 311 0.0 0.0 0.00 0.00 0.00 99 1018.5
20260901055551 11 315 0.0 0.0 0.00 0.00 0.00 99 1018.3
20260901055048 10 311 0.0 0.0 0.00 0.00 0.00 99 1018.4
20260901054544 10 307 0.0 0.0 0.00 0.00 0.00 99 1018.5
20260901054040 10 319 0.0 0.0 0.00 0.00 0.00 99 1018.6
20260901053536 10 318 0.0 0.0 0.00 0.00 0.00 99 1018.4
20260901053032 10 320 0.0 0.0 0.00 0.00 0.00 99 1018.6
20260901052532 10 322 0.0 0.0 0.00 0.00 0.00 99 1018.3
20260901052031 10 322 0.0 0.0 0.00 0.00 0.00 99 1018.4
20260901051526 10 322 0.0 0.0 0.00 0.00 0.00 99 1018.4
20260901051025 10 322 0.0 0.0 0.00 0.00 0.00 99 1018.2
20260901050521 10 322 0.0 0.0 0.00 0.00 0.00 99 1018.4
20260901050017 10 322 0.0 0.0 0.00 0.00 0.00 99 1018.3
20260901045512 10 322 0.0 0.0 0.00 0.00 0.00 99 1018.4
20260901045012 10 322 0.0 0.0 0.00 0.00 0.00 99 1018.2
20260901044508 10 322 0.0 0.0 0.00 0.00 0.00 99 1018.4
20260901044003 10 322 0.0 0.0 0.00 0.00 0.00 99 1018.3
20260901043459 10 322 0.0 0.0 0.00 0.00 0.00 99 1018.1
20260901042954 10 322 0.0 0.0 0.00 0.00 0.00 99 1018.2
20260901042453 10 322 0.0 0.0 0.00 0.00 0.00 99 1018.1
20260901041949 10 322 0.0 0.0 0.00 0.00 0.00 99 1018.1
20260901041443 10 322 0.0 0.0 0.00 0.00 0.00 99 1018.2
20260901040943 10 322 0.0 0.0 0.00 0.00 0.00 99 1018.2
20260901040433 10 322 0.0 0.0 0.00 0.00 0.00 99 1018.2
20260901035932 11 322 0.0 0.0 0.00 0.00 0.00 99 1018.2
20260901035431 10 322 0.0 0.0 0.00 0.00 0.00 99 1018.2
20260901034929 11 322 0.0 0.0 0.00 0.00 0.00 99 1018.4
20260901034424 11 322 0.0 0.0 0.00 0.00 0.00 99 1018.3
20260901033919 10 322 0.0 0.0 0.00 0.00 0.00 99 1018.5
20260901033418 11 322 0.0 0.0 0.00 0.00 0.00 99 1018.1
20260901032917 11 322 0.0 0.0 0.00 0.00 0.00 99 1018.5
20260901032416 11 328 0.0 0.0 0.00 0.00 0.00 99 1018.4
20260901031912 11 332 0.0 0.0 0.00 0.00 0.00 99 1018.4
20260901031407 11 317 0.0 0.0 0.00 0.00 0.00 99 1018.5
20260901030907 11 318 0.0 0.0 0.00 0.00 0.00 99 1018.4
20260901030402 11 318 0.0 0.0 0.00 0.00 0.00 99 1018.4
20260901025901 11 319 0.0 0.0 0.00 0.00 0.00 99 1018.3
20260901025356 11 319 0.0 0.0 0.00 0.00 0.00 99 1018.4
20260901024851 11 314 0.0 0.0 0.00 0.00 0.00 99 1018.6
20260901024350 11 316 0.0 0.0 0.00 0.00 0.00 99 1018.3
20260901023849 11 313 0.0 0.0 0.00 0.00 0.00 99 1018.5
20260901023344 12 313 0.0 0.0 0.00 0.00 0.00 99 1018.5
20260901022838 11 306 0.0 0.0 0.00 0.00 0.00 99 1018.4
20260901022334 11 316 0.0 0.0 0.00 0.00 0.00 99 1018.3
20260901021830 11 316 0.0 0.0 0.00 0.00 0.00 99 1018.4
20260901021325 11 319 0.0 0.0 0.00 0.00 0.00 99 1018.6
20260901020820 12 317 0.0 0.0 0.00 0.00 0.00 99 1018.5
20260901020315 12 313 0.0 0.0 0.00 0.00 0.00 99 1018.3
20260901015810 12 324 0.0 0.0 0.00 0.00 0.00 99 1018.6
20260901015307 12 324 0.0 0.0 0.00 0.00 0.00 99 1018.5
20260901014805 12 339 0.0 0.0 0.00 0.00 0.00 99 1018.4
20260901014301 12 350 0.0 0.0 0.00 0.00 0.00 99 1018.3
20260901013756 12 315 0.0 0.0 0.00 0.00 0.00 99 1018.4
20260901013252 12 313 0.0 0.0 0.00 0.00 0.00 99 1018.3
20260901012742 12 322 0.0 0.0 0.00 0.00 0.00 98 1018.3
20260901012242 12 322 0.0 0.0 0.00 0.00 0.00 98 1018.1
20260901011737 12 322 0.0 0.0 0.00 0.00 0.00 98 1017.9
20260901011232 12 322 0.0 0.0 0.00 0.00 0.00 98 1018.3
20260901010726 13 323 0.0 0.0 0.00 0.00 0.00 97 1018.1
20260901010221 13 324 0.0 0.0 0.00 0.00 0.00 96 1018.4
20260901005714 13 326 0.0 0.0 0.00 0.00 0.00 96 1018.4
20260901005209 13 339 0.0 0.0 0.00 0.00 0.00 96 1018.2
20260901004709 13 311 0.0 0.0 0.00 0.00 0.00 95 1018.4
20260901004203 13 314 0.0 0.0 0.00 0.00 0.00 94 1018.2
20260901003658 14 315 0.0 0.0 0.00 0.00 0.00 93 1018.3
20260901003157 14 314 0.0 0.0 0.00 0.00 0.00 92 1018.5
20260901002651 15 310 0.0 0.0 0.00 0.00 0.00 91 1018.3
20260901002146 15 282 0.0 0.0 0.00 0.00 0.00 90 1018.2
20260901001642 15 304 0.0 0.0 0.00 0.00 0.00 90 1018.2
20260901001137 15 251 1.6 1.6 0.00 0.00 0.00 90 1018.2
20260901000632 15 316 0.0 0.0 0.00 0.00 0.00 92 1018.2
20260901000130 15 305 0.0 0.0 0.00 0.00 0.00 92 1017.9
20260831235621 15 311 0.0 0.0 0.00 0.00 0.00 90 1018.0
20260831235117 15 310 0.0 0.0 0.00 0.00 0.00 90 1018.2
20260831234616 16 286 0.0 0.0 0.00 0.00 0.00 88 1018.0
20260831234112 16 303 0.0 0.0 0.00 0.00 0.00 87 1018.1
20260831233607 16 6 0.0 0.0 0.00 0.00 0.00 88 1018.2
20260831233102 16 342 0.0 0.0 0.00 0.00 0.00 87 1018.1
20260831232557 16 331 0.0 0.0 0.00 0.00 0.00 85 1018.1
20260831232053 17 341 0.0 0.0 0.00 0.00 0.00 84 1018.1
20260831231549 17 286 0.0 0.0 0.00 0.00 0.00 82 1018.2
20260831231044 17 262 0.0 0.0 0.00 0.00 0.00 81 1018.4
20260831230540 17 325 0.0 0.0 0.00 0.00 0.00 80 1018.2
20260831230039 18 161 0.0 0.0 0.00 0.00 0.00 78 1018.4
20260831225535 18 114 3.2 3.2 0.00 0.00 0.00 76 1018.1
20260831225030 19 320 0.0 0.0 0.00 0.00 0.00 74 1018.0
20260831224525 19 298 0.0 0.0 0.00 0.00 0.00 72 1018.2
20260831224021 19 315 0.0 0.0 0.00 0.00 0.00 71 1018.1
20260831223515 20 45 0.0 1.6 0.00 0.00 0.00 69 1018.3
20260831223012 20 65 1.6 1.6 0.00 0.00 0.00 68 1018.2
20260831222508 20 332 1.6 3.2 0.00 0.00 0.00 68 1018.3
20260831222007 20 251 1.6 1.6 0.00 0.00 0.00 68 1018.1
20260831221504 20 329 1.6 1.6 0.00 0.00 0.00 67 1018.3
20260831220958 21 88 0.0 0.0 0.00 0.00 0.00 66 1018.2
20260831220454 21 81 1.6 1.6 0.00 0.00 0.00 67 1018.2
20260831215949 21 315 0.0 1.6 0.00 0.00 0.00 64 1018.2
20260831215444 21 309 0.0 0.0 0.00 0.00 0.00 65 1018.0
20260831214940 21 9 3.2 4.8 0.00 0.00 0.00 65 1018.2
20260831214437 22 198 3.2 4.8 0.00 0.00 0.00 63 1018.2
20260831213933 22 261 3.2 4.8 0.00 0.00 0.00 61 1018.4
20260831213429 22 292 1.6 1.6 0.00 0.00 0.00 62 1018.2
20260831212929 22 341 1.6 1.6 0.00 0.00 0.00 63 1018.2
20260831212426 22 312 1.6 3.2 0.00 0.00 0.00 60 1018.1
20260831211925 23 204 6.4 6.4 0.00 0.00 0.00 58 1018.1
20260831211420 23 300 0.0 0.0 0.00 0.00 0.00 58 1018.3
20260831210914 23 336 1.6 1.6 0.00 0.00 0.00 56 1018.2
20260831210410 23 300 0.0 1.6 0.00 0.00 0.00 59 1018.3
20260831205905 22 161 3.2 3.2 0.00 0.00 0.00 59 1018.2
20260831205401 23 297 4.8 6.4 0.00 0.00 0.00 59 1018.3
20260831204855 23 45 1.6 1.6 0.00 0.00 0.00 59 1018.2
20260831204354 23 189 3.2 4.8 0.00 0.00 0.00 58 1018.4
20260831203854 23 271 0.0 1.6 0.00 0.00 0.00 59 1018.4
20260831203349 23 254 1.6 3.2 0.00 0.00 0.00 59 1018.6
20260831202847 23 324 0.0 0.0 0.00 0.00 0.00 63 1018.3
20260831202342 22 139 4.8 4.8 0.00 0.00 0.00 61 1018.4
20260831201836 23 306 3.2 4.8 0.00 0.00 0.00 60 1018.4